Location: Contre
(49.7477°N, 2.0963°E)
Time: 11:46:44
(UTC+00:00)

Cosmos 1844 - Visible Passes

Search period start: 28 September 2023 00:00
Search period end: 08 October 2023 00:00
Orbit: 821 x 869 km, 70.9° (Epoch: 27 September)

Date Brightness Start Highest point End Pass type
(mag) Time Alt. Az. Time Alt. Az. Time Alt. Az.
28 Sep 5.4 18:28:12 10° NW 18:33:27 36° WSW 18:38:39 10° S visible
29 Sep 5.4 18:14:03 10° NW 18:19:20 37° WSW 18:24:34 10° S visible
30 Sep 5.4 17:59:54 10° NW 18:05:13 38° WSW 18:10:29 10° S visible
